NOAA 16 DEB, 42409

Orbit data source: Space-Track

NOAA 16 DEB, 42409 is space debris in SSO originally from a launch on Thu, 21 Sep 2000 UTC launched from the Air Force Western Test Range (AFWTR). Debris objects in space refer to the collection of defunct objects orbiting the Earth. Examples of debris include non-operational satellites, rocket bodies, and fragments generated from explosions, collisions, or faulty payload assembly.

Loading next visibility...
Identifier
42409, 2000-055TD
Orbit
SSO
Country
Flag of USUS
Related business
Manufacturer
Unknown
Mission
Spacecraft
Bus & Motor
Unknown
Mass
Unknown
Launch date (UTC)
2000-09-21 (25 years ago)
Launch vehicle
Unknown
Launch site
Air Force Western Test Range (AFWTR)
Object type
Payload
Rocket body
Debris
Shape & HBR
Unknown shape, 0.1 m
Radar Cross Section
Small (<0.1 m²)

Expand to show TLE details & history
Last TLE update: 4 days ago

TLE from 4 days ago
0 NOAA 16 DEB
1 42409U 00055TD  25348.37187759  .00030251  00000-0  50368-2 0  9993
2 42409  98.7699 135.4703 0024205 165.5804 194.6095 14.69767031508094
Epoch: 2025-12-14T08:55Z
TLE epoch observation values (Epoch: 2025-12-14T08:55:30.223Z)
Latitude
-0.0001°
Longitude
-81.69136°
Altitude
681.287 km
Speed
7.507 km/s
True Right ascension
09h 01m 52s
True Declination
0° 00' 00"
Sunlit
Object was in full shadow at epoch
Visualization orbit readout
Latitude
Unknown
Longitude
Unknown
Altitude
Unknown
Speed
Unknown
Apparent Right ascension
Unknown
Apparent Declination
Unknown
Sunlit
N/A
Visualization observer readout
Local Sidereal Time
08:53:13
Azimuth
Unknown
Elevation
Unknown
Doppler factor
Unknown
Orbital elements
Apogee altitude
675.94 km
Perigee altitude
641.874 km
Semi-major axis
7,037.044 km
Eccentricity
0.00242
Inclination
98.7699°
RAAN
135.4703°
Arg. of periapsis
165.5804°
True anomaly
194.53974°
Mean anomaly
194.6095°
Eccentric anomaly
194.5746°
Mean motion
3.6767 °/min
Orbital period
97.91 mins
BSTAR
0.0050368
Loading maneuver chart data...
Computing Atmospheric mass density...
Loading historical data...
Loading historical data...
Loading historical data...
Loading historical data...
Loading historical data...
Loading historical data...
Loading historical data...

Documentation

Showing up to 5 results
|